QPF
0.01 0.01 0.02 0.03 0.02 0.01 0.01 0.01 0.01 0.01 0.00 0.00 0.00 0.00 0.00 0.00 0.00 0.00 0.00 0.00 0.01 0.01 0.01 0.01 0.01 0.01 0.02 0.02 0.02 0.01 0.02 0.02 0.02 0.01 0.00 0.00 0.00 0.00 0.00 0.00 0.00 0.00 0.00
0.01 0.01 0.01 0.01 0.02 0.02 0.01 0.01 0.01 0.01 0.01 0.00 0.00 0.00 0.00 0.00 0.00 0.01 0.01 0.01 0.01 0.01 0.01 0.02 0.01 0.01 0.01 0.01 0.01 0.02 0.02 0.02 0.01 0.01 0.01 0.00 0.00 0.00 0.00 0.00 0.00 0.00 0.00
0.02 0.01 0.01 0.01 0.01 0.01 0.01 0.01 0.01 0.01 0.01 0.01 0.01 0.00 0.00 0.00 0.00 0.01 0.01 0.01 0.01 0.01 0.01 0.01 0.01 0.01 0.01 0.02 0.02 0.02 0.02 0.02 0.01 0.01 0.01 0.01 0.01 0.01 0.01 0.01 0.00 0.00 0.00
0.01 0.02 0.02 0.01 0.01 0.01 0.01 0.01 0.01 0.01 0.01 0.01 0.01 0.01 0.00 0.00 0.00 0.01 0.01 0.01 0.01 0.01 0.01 0.01 0.02 0.02 0.03 0.04 0.04 0.03 0.02 0.02 0.02 0.02 0.02 0.01 0.01 0.01 0.01 0.01 0.00 0.00 0.00
0.01 0.01 0.01 0.01 0.01 0.01 0.01 0.01 0.00 0.01 0.01 0.01 0.01 0.01 0.01 0.01 0.01 0.01 0.01 0.01 0.01 0.01 0.01 0.01 0.02 0.04 0.05 0.04 0.03 0.03 0.02 0.02 0.02 0.02 0.02 0.02 0.02 0.01 0.01 0.01 0.01 0.00 0.00
0.01 0.01 0.01 0.01 0.02 0.02 0.01 0.01 0.01 0.01 0.01 0.01 0.01 0.01 0.01 0.01 0.01 0.01 0.01 0.01 0.01 0.01 0.01 0.01 0.02 0.03 0.03 0.03 0.02 0.02 0.01 0.01 0.01 0.01 0.01 0.01 0.01 0.01 0.01 0.01 0.01 0.01 0.00
0.01 0.01 0.01 0.01 0.01 0.02 0.02 0.02 0.02 0.01 0.01 0.01 0.01 0.01 0.01 0.01 0.01 0.01 0.01 0.01 0.01 0.01 0.02 0.02 0.02 0.02 0.02 0.01 0.02 0.02 0.02 0.01 0.01 0.01 0.01 0.01 0.01 0.01 0.01 0.01 0.01 0.01 0.00
0.01 0.01 0.01 0.01 0.01 0.02 0.02 0.02 0.02 0.02 0.02 0.01 0.01 0.01 0.01 0.01 0.01 0.01 0.01 0.01 0.01 0.01 0.02 0.02 0.02 0.02 0.01 0.01 0.01 0.01 0.01 0.01 0.01 0.01 0.01 0.01 0.01 0.01 0.01 0.01 0.01 0.00 0.00
0.01 0.01 0.01 0.01 0.01 0.01 0.02 0.02 0.02 0.02 0.02 0.01 0.01 0.01 0.01 0.01 0.02 0.01 0.01 0.01 0.01 0.01 0.01 0.01 0.01 0.01 0.02 0.01 0.01 0.01 0.01 0.01 0.01 0.01 0.01 0.01 0.01 0.01 0.01 0.00 0.00 0.01 0.01
0.00 0.01 0.01 0.01 0.01 0.01 0.01 0.01 0.01 0.01 0.02 0.01 0.01 0.01 0.01 0.01 0.02 0.01 0.01 0.01 0.02 0.02 0.01 0.01 0.01 0.01 0.01 0.01 0.01 0.01 0.01 0.00 0.00 0.00 0.01 0.01 0.01 0.00 0.00 0.01 0.01 0.01 0.01
0.00 0.01 0.01 0.01 0.01 0.01 0.01 0.01 0.01 0.01 0.01 0.01 0.01 0.01 0.01 0.01 0.02 0.01 0.01 0.01 0.01 0.01 0.01 0.01 0.01 0.01 0.00 0.00 0.00 0.01 0.01 0.01 0.01 0.01 0.01 0.01 0.01 0.01 0.00 0.00 0.01 0.01 0.01
0.00 0.01 0.01 0.01 0.01 0.01 0.01 0.01 0.01 0.01 0.01 0.01 0.01 0.01 0.01 0.01 0.01 0.01 0.01 0.01 0.01 0.00 0.00 0.00 0.00 0.00 0.00 0.00 0.01 0.01 0.01 0.01 0.00 0.01 0.01 0.01 0.01 0.00 0.00 0.00 0.00 0.00 0.00
0.00 0.01 0.01 0.01 0.01 0.01 0.01 0.01 0.01 0.01 0.01 0.01 0.01 0.01 0.01 0.01 0.01 0.01 0.01 0.01 0.01 0.00 0.00 0.00 0.00 0.01 0.01 0.01 0.01 0.01 0.00 0.00 0.00 0.00 0.00 0.00 0.00 0.00 0.00 0.00 0.00 0.00 0.00
0.01 0.01 0.01 0.01 0.01 0.01 0.01 0.00 0.00 0.01 0.01 0.00 0.00 0.00 0.00 0.00 0.01 0.01 0.01 0.01 0.01 0.01 0.01 0.01 0.01 0.01 0.01 0.01 0.01 0.01 0.00 0.00 0.00 0.00 0.00 0.00 0.00 0.00 0.00 0.00 0.00 0.00 0.00
0.01 0.01 0.01 0.01 0.01 0.01 0.00 0.00 0.00 0.00 0.00 0.00 0.00 0.00 0.00 0.00 0.00 0.00 0.00 0.00 0.00 0.01 0.01 0.01 0.01 0.01 0.01 0.00 0.00 0.00 0.00 0.00 0.00 0.00 0.00 0.00 0.00 0.00 0.00 0.00 0.00 0.00 0.00
0.00 0.01 0.01 0.01 0.00 0.00 0.00 0.00 0.01 0.01 0.00 0.00 0.00 0.00 0.00 0.00 0.00 0.00 0.00 0.00 0.01 0.01 0.01 0.01 0.01 0.01 0.01 0.00 0.00 0.00 0.00 0.00 0.00 0.00 0.00 0.00 0.00 0.00 0.00 0.00 0.00 0.00 0.00
0.01 0.01 0.01 0.01 0.00 0.00 0.00 0.00 0.00 0.01 0.01 0.01 0.00 0.00 0.00 0.00 0.00 0.00 0.00 0.01 0.01 0.01 0.00 0.00 0.01 0.01 0.01 0.00 0.00 0.00 0.00 0.00 0.00 0.00 0.00 0.00 0.00 0.00 0.00 0.00 0.00 0.00 0.00
0.01 0.01 0.01 0.01 0.01 0.00 0.00 0.00 0.00 0.00 0.01 0.01 0.01 0.01 0.01 0.01 0.01 0.01 0.01 0.01 0.01 0.01 0.00 0.00 0.00 0.01 0.01 0.00 0.00 0.00 0.00 0.00 0.00 0.00 0.00 0.00 0.00 0.00 0.00 0.00 0.00 0.00 0.00
0.01 0.01 0.01 0.01 0.01 0.00 0.00 0.00 0.00 0.00 0.00 0.00 0.01 0.01 0.01 0.01 0.01 0.01 0.01 0.00 0.00 0.00 0.00 0.00 0.00 0.01 0.00 0.00 0.00 0.00 0.00 0.00 0.00 0.00 0.00 0.00 0.00 0.00 0.00 0.00 0.00 0.00 0.00
0.01 0.02 0.01 0.01 0.00 0.00 0.00 0.00 0.00 0.00 0.00 0.00 0.00 0.00 0.01 0.01 0.01 0.01 0.01 0.00 0.00 0.00 0.00 0.01 0.01 0.01 0.00 0.00 0.00 0.00 0.00 0.00 0.00 0.00 0.00 0.00 0.00 0.00 0.00 0.00 0.00 0.00 0.00
0.01 0.01 0.01 0.01 0.00 0.00 0.00 0.00 0.00 0.00 0.00 0.00 0.00 0.00 0.00 0.00 0.00 0.00 0.00 0.00 0.00 0.00 0.00 0.01 0.01 0.01 0.00 0.00 0.00 0.00 0.00 0.00 0.00 0.00 0.00 0.00 0.00 0.00 0.00 0.00 0.00 0.00 0.00
0.01 0.01 0.01 0.01 0.01 0.00 0.00 0.00 0.00 0.00 0.00 0.00 0.00 0.00 0.00 0.00 0.00 0.00 0.00 0.00 0.00 0.00 0.00 0.00 0.01 0.00 0.00 0.00 0.00 0.00 0.00 0.00 0.00 0.00 0.00 0.00 0.00 0.00 0.00 0.00 0.00 0.00 0.00
0.02 0.02 0.01 0.01 0.01 0.01 0.01 0.01 0.01 0.00 0.00 0.00 0.00 0.00 0.00 0.00 0.00 0.00 0.00 0.00 0.00 0.01 0.01 0.01 0.00 0.00 0.00 0.00 0.00 0.00 0.00 0.00 0.00 0.00 0.00 0.00 0.00 0.00 0.00 0.00 0.00 0.00 0.00
0.02 0.02 0.02 0.02 0.02 0.01 0.01 0.01 0.01 0.00 0.00 0.00 0.00 0.00 0.00 0.00 0.00 0.00 0.00 0.00 0.00 0.00 0.01 0.01 0.00 0.00 0.00 0.00 0.00 0.00 0.00 0.00 0.00 0.00 0.00 0.00 0.00 0.00 0.00 0.00 0.00 0.00 0.00
0.03 0.03 0.03 0.03 0.02 0.01 0.01 0.01 0.01 0.01 0.01 0.00 0.00 0.00 0.00 0.00 0.00 0.00 0.00 0.00 0.00 0.00 0.00 0.00 0.00 0.00 0.00 0.00 0.00 0.00 0.00 0.00 0.00 0.00 0.00 0.00 0.00 0.00 0.00 0.00 0.00 0.00 0.00
0.03 0.03 0.03 0.03 0.03 0.02 0.01 0.01 0.01 0.01 0.01 0.01 0.00 0.00 0.00 0.00 0.00 0.00 0.00 0.00 0.00 0.00 0.00 0.00 0.00 0.00 0.00 0.00 0.00 0.00 0.00 0.00 0.00 0.00 0.01 0.01 0.01 0.00 0.01 0.01 0.00 0.01 0.00
MSLP
1000.06 1001.22 1002.32 1003.36 1004.33 1005.26 1006.15 1007.03 1007.89 1008.73 1009.56 1010.34 1011.07 1011.73 1012.33 1012.87 1013.37 1013.83 1014.28 1014.74 1015.20 1015.67 1016.13 1016.56 1016.96 1017.30 1017.58 1017.81 1018.00 1018.15 1018.29 1018.40 1018.51 1018.58 1018.63 1018.62 1018.57 1018.47 1018.33 1018.17 1018.02 1017.89 1017.81
999.33 1000.53 1001.67 1002.73 1003.72 1004.66 1005.56 1006.44 1007.31 1008.17 1009.00 1009.80 1010.55 1011.22 1011.83 1012.37 1012.87 1013.32 1013.76 1014.20 1014.64 1015.07 1015.50 1015.91 1016.28 1016.61 1016.89 1017.14 1017.35 1017.55 1017.73 1017.90 1018.06 1018.19 1018.28 1018.31 1018.28 1018.19 1018.04 1017.86 1017.68 1017.51 1017.38
998.66 999.90 1001.06 1002.13 1003.12 1004.05 1004.94 1005.81 1006.68 1007.54 1008.38 1009.19 1009.95 1010.65 1011.28 1011.84 1012.34 1012.81 1013.25 1013.68 1014.11 1014.53 1014.95 1015.35 1015.72 1016.05 1016.35 1016.61 1016.85 1017.08 1017.30 1017.52 1017.72 1017.88 1018.01 1018.07 1018.05 1017.97 1017.82 1017.63 1017.42 1017.22 1017.04
998.09 999.35 1000.51 1001.58 1002.55 1003.46 1004.33 1005.17 1006.03 1006.88 1007.73 1008.56 1009.34 1010.07 1010.72 1011.31 1011.85 1012.33 1012.79 1013.24 1013.68 1014.11 1014.54 1014.95 1015.33 1015.68 1016.00 1016.29 1016.55 1016.81 1017.05 1017.28 1017.50 1017.69 1017.83 1017.90 1017.91 1017.83 1017.69 1017.49 1017.27 1017.04 1016.82
997.63 998.88 1000.04 1001.08 1002.03 1002.90 1003.74 1004.57 1005.41 1006.26 1007.12 1007.97 1008.79 1009.55 1010.25 1010.88 1011.44 1011.97 1012.45 1012.93 1013.40 1013.86 1014.31 1014.75 1015.17 1015.55 1015.89 1016.20 1016.49 1016.75 1017.00 1017.23 1017.45 1017.64 1017.77 1017.85 1017.86 1017.79 1017.66 1017.47 1017.23 1016.98 1016.72
997.28 998.51 999.63 1000.65 1001.56 1002.41 1003.23 1004.05 1004.89 1005.76 1006.64 1007.53 1008.38 1009.19 1009.93 1010.61 1011.22 1011.78 1012.31 1012.82 1013.32 1013.82 1014.32 1014.80 1015.25 1015.67 1016.04 1016.37 1016.67 1016.93 1017.17 1017.38 1017.58 1017.74 1017.86 1017.93 1017.94 1017.87 1017.74 1017.56 1017.32 1017.06 1016.77
997.03 998.21 999.30 1000.29 1001.18 1002.02 1002.84 1003.67 1004.54 1005.44 1006.37 1007.30 1008.21 1009.07 1009.86 1010.58 1011.23 1011.83 1012.40 1012.94 1013.49 1014.03 1014.57 1015.09 1015.58 1016.03 1016.43 1016.78 1017.08 1017.33 1017.55 1017.73 1017.89 1018.01 1018.11 1018.15 1018.14 1018.08 1017.95 1017.77 1017.54 1017.27 1016.97
996.86 998.00 999.05 1000.01 1000.90 1001.76 1002.60 1003.48 1004.40 1005.36 1006.35 1007.34 1008.31 1009.22 1010.05 1010.81 1011.50 1012.13 1012.73 1013.31 1013.89 1014.47 1015.04 1015.60 1016.13 1016.61 1017.04 1017.39 1017.69 1017.92 1018.11 1018.25 1018.37 1018.45 1018.50 1018.52 1018.49 1018.42 1018.29 1018.12 1017.89 1017.62 1017.31
996.77 997.85 998.88 999.84 1000.75 1001.64 1002.54 1003.49 1004.48 1005.52 1006.58 1007.64 1008.66 1009.61 1010.49 1011.28 1012.00 1012.66 1013.28 1013.88 1014.49 1015.09 1015.70 1016.29 1016.85 1017.35 1017.79 1018.16 1018.44 1018.66 1018.81 1018.92 1018.99 1019.02 1019.03 1019.01 1018.97 1018.88 1018.75 1018.58 1018.35 1018.09 1017.78
996.76 997.80 998.81 999.78 1000.72 1001.68 1002.65 1003.68 1004.76 1005.87 1007.00 1008.12 1009.19 1010.19 1011.10 1011.92 1012.65 1013.33 1013.97 1014.59 1015.22 1015.85 1016.48 1017.09 1017.67 1018.20 1018.65 1019.01 1019.29 1019.49 1019.61 1019.68 1019.71 1019.70 1019.67 1019.62 1019.55 1019.44 1019.31 1019.13 1018.91 1018.65 1018.34
996.87 997.87 998.87 999.86 1000.86 1001.88 1002.93 1004.04 1005.19 1006.37 1007.56 1008.73 1009.83 1010.86 1011.79 1012.62 1013.38 1014.07 1014.73 1015.37 1016.02 1016.67 1017.33 1017.96 1018.56 1019.09 1019.55 1019.92 1020.19 1020.37 1020.47 1020.50 1020.50 1020.45 1020.39 1020.31 1020.21 1020.08 1019.93 1019.75 1019.53 1019.27 1018.96
997.13 998.11 999.11 1000.13 1001.17 1002.25 1003.37 1004.54 1005.75 1006.97 1008.19 1009.38 1010.50 1011.53 1012.47 1013.32 1014.09 1014.81 1015.50 1016.17 1016.84 1017.52 1018.20 1018.85 1019.46 1020.01 1020.47 1020.83 1021.09 1021.26 1021.34 1021.35 1021.32 1021.24 1021.15 1021.04 1020.91 1020.77 1020.60 1020.40 1020.17 1019.91 1019.60
997.58 998.55 999.57 1000.61 1001.69 1002.82 1003.98 1005.18 1006.40 1007.64 1008.85 1010.03 1011.14 1012.17 1013.11 1013.97 1014.77 1015.51 1016.23 1016.94 1017.65 1018.37 1019.07 1019.74 1020.37 1020.92 1021.38 1021.74 1021.99 1022.14 1022.20 1022.19 1022.13 1022.04 1021.92 1021.78 1021.63 1021.46 1021.27 1021.06 1020.81 1020.54 1020.22
998.26 999.23 1000.25 1001.32 1002.43 1003.57 1004.74 1005.94 1007.15 1008.36 1009.54 1010.68 1011.76 1012.77 1013.71 1014.58 1015.39 1016.18 1016.94 1017.70 1018.45 1019.21 1019.94 1020.63 1021.27 1021.82 1022.28 1022.62 1022.85 1022.99 1023.03 1023.00 1022.92 1022.80 1022.65 1022.49 1022.31 1022.12 1021.91 1021.68 1021.41 1021.12 1020.79
999.15 1000.13 1001.18 1002.26 1003.38 1004.52 1005.67 1006.84 1008.00 1009.15 1010.28 1011.36 1012.40 1013.37 1014.30 1015.18 1016.02 1016.85 1017.66 1018.47 1019.27 1020.06 1020.81 1021.52 1022.16 1022.70 1023.14 1023.47 1023.68 1023.79 1023.81 1023.76 1023.65 1023.51 1023.34 1023.15 1022.94 1022.72 1022.49 1022.23 1021.94 1021.63 1021.28
1000.22 1001.23 1002.29 1003.39 1004.51 1005.63 1006.76 1007.87 1008.97 1010.06 1011.11 1012.13 1013.11 1014.05 1014.97 1015.85 1016.72 1017.58 1018.44 1019.29 1020.12 1020.93 1021.70 1022.41 1023.03 1023.55 1023.97 1024.26 1024.44 1024.52 1024.52 1024.44 1024.30 1024.13 1023.94 1023.72 1023.49 1023.25 1022.98 1022.70 1022.39 1022.06 1021.69
1001.39 1002.43 1003.52 1004.64 1005.76 1006.87 1007.96 1009.02 1010.07 1011.08 1012.07 1013.02 1013.96 1014.87 1015.77 1016.66 1017.55 1018.43 1019.31 1020.18 1021.03 1021.85 1022.60 1023.29 1023.88 1024.36 1024.73 1024.99 1025.13 1025.17 1025.13 1025.02 1024.86 1024.67 1024.45 1024.21 1023.95 1023.68 1023.39 1023.09 1022.76 1022.41 1022.02
1002.59 1003.67 1004.79 1005.93 1007.05 1008.16 1009.22 1010.26 1011.25 1012.22 1013.15 1014.07 1014.97 1015.85 1016.74 1017.63 1018.52 1019.41 1020.29 1021.15 1021.99 1022.77 1023.49 1024.13 1024.66 1025.09 1025.41 1025.61 1025.71 1025.72 1025.65 1025.51 1025.33 1025.11 1024.86 1024.60 1024.32 1024.03 1023.73 1023.41 1023.07 1022.71 1022.31
1003.73 1004.85 1006.01 1007.17 1008.32 1009.43 1010.49 1011.51 1012.49 1013.43 1014.34 1015.23 1016.11 1016.98 1017.86 1018.74 1019.61 1020.48 1021.34 1022.17 1022.95 1023.68 1024.33 1024.89 1025.36 1025.72 1025.98 1026.13 1026.18 1026.15 1026.05 1025.90 1025.70 1025.46 1025.20 1024.93 1024.63 1024.33 1024.02 1023.69 1023.34 1022.98 1022.58
1004.77 1005.93 1007.12 1008.31 1009.48 1010.61 1011.69 1012.72 1013.70 1014.65 1015.56 1016.45 1017.33 1018.20 1019.06 1019.92 1020.77 1021.60 1022.40 1023.16 1023.87 1024.51 1025.08 1025.55 1025.93 1026.22 1026.41 1026.51 1026.52 1026.47 1026.35 1026.19 1025.98 1025.74 1025.48 1025.20 1024.90 1024.59 1024.28 1023.95 1023.61 1023.25 1022.86
1005.69 1006.87 1008.08 1009.30 1010.49 1011.65 1012.76 1013.82 1014.83 1015.80 1016.74 1017.65 1018.53 1019.40 1020.25 1021.09 1021.89 1022.67 1023.40 1024.07 1024.69 1025.22 1025.69 1026.06 1026.36 1026.57 1026.70 1026.76 1026.75 1026.68 1026.56 1026.40 1026.20 1025.97 1025.72 1025.44 1025.15 1024.85 1024.54 1024.22 1023.89 1023.54 1023.17
1006.51 1007.69 1008.91 1010.13 1011.35 1012.53 1013.66 1014.76 1015.81 1016.82 1017.79 1018.73 1019.63 1020.50 1021.34 1022.15 1022.91 1023.61 1024.26 1024.84 1025.35 1025.78 1026.14 1026.42 1026.63 1026.78 1026.86 1026.89 1026.87 1026.80 1026.70 1026.55 1026.38 1026.17 1025.93 1025.68 1025.40 1025.11 1024.81 1024.50 1024.19 1023.86 1023.52
1007.25 1008.41 1009.62 1010.84 1012.05 1013.25 1014.41 1015.53 1016.61 1017.65 1018.66 1019.62 1020.54 1021.42 1022.25 1023.02 1023.73 1024.37 1024.93 1025.42 1025.83 1026.17 1026.43 1026.63 1026.77 1026.87 1026.92 1026.93 1026.91 1026.86 1026.77 1026.66 1026.52 1026.34 1026.13 1025.90 1025.65 1025.37 1025.09 1024.80 1024.51 1024.21 1023.89
1007.96 1009.09 1010.26 1011.45 1012.65 1013.84 1015.00 1016.14 1017.24 1018.30 1019.33 1020.31 1021.24 1022.12 1022.93 1023.68 1024.34 1024.93 1025.42 1025.83 1026.16 1026.41 1026.60 1026.73 1026.83 1026.88 1026.91 1026.92 1026.91 1026.87 1026.82 1026.74 1026.63 1026.48 1026.31 1026.10 1025.88 1025.63 1025.37 1025.10 1024.82 1024.54 1024.25
1008.66 1009.75 1010.87 1012.03 1013.19 1014.35 1015.49 1016.62 1017.72 1018.79 1019.82 1020.81 1021.74 1022.62 1023.42 1024.14 1024.77 1025.31 1025.75 1026.10 1026.37 1026.56 1026.70 1026.78 1026.84 1026.87 1026.88 1026.89 1026.88 1026.87 1026.84 1026.78 1026.70 1026.59 1026.44 1026.27 1026.06 1025.84 1025.61 1025.36 1025.11 1024.85 1024.59
1009.37 1010.41 1011.48 1012.58 1013.69 1014.81 1015.92 1017.01 1018.09 1019.15 1020.17 1021.16 1022.09 1022.95 1023.74 1024.44 1025.05 1025.56 1025.97 1026.28 1026.51 1026.67 1026.77 1026.82 1026.85 1026.86 1026.86 1026.86 1026.86 1026.85 1026.83 1026.79 1026.73 1026.64 1026.52 1026.37 1026.19 1025.99 1025.78 1025.56 1025.33 1025.10 1024.86
Thickness
5666 5667 5667 5666 5665 5663 5661 5660 5658 5654 5650 5647 5643 5638 5634 5630 5626 5622 5618 5613 5608 5602 5597 5592 5587 5581 5575 5569 5563 5557 5551 5544 5538 5534 5527 5522 5516 5510 5504 5498 5491 5484 5477
5663 5663 5663 5662 5660 5659 5658 5657 5654 5651 5647 5644 5639 5635 5631 5627 5623 5619 5614 5609 5604 5599 5593 5588 5582 5576 5570 5563 5557 5551 5545 5539 5532 5526 5519 5512 5507 5501 5495 5488 5481 5474 5466
5657 5657 5656 5656 5656 5656 5655 5653 5650 5647 5643 5639 5635 5632 5628 5623 5619 5615 5611 5605 5600 5595 5589 5584 5578 5571 5564 5558 5551 5545 5539 5532 5525 5518 5511 5503 5497 5491 5484 5478 5471 5463 5455
5650 5651 5651 5652 5653 5653 5651 5648 5646 5643 5639 5636 5632 5628 5624 5619 5615 5610 5605 5600 5594 5589 5584 5578 5572 5566 5560 5553 5546 5539 5532 5524 5516 5509 5502 5494 5487 5481 5473 5466 5459 5451 5443
5644 5646 5648 5648 5647 5645 5644 5642 5640 5638 5635 5631 5627 5622 5618 5613 5610 5605 5600 5594 5588 5582 5576 5571 5566 5561 5555 5548 5541 5533 5525 5517 5508 5501 5493 5485 5478 5470 5463 5455 5447 5438 5431
5637 5640 5642 5641 5639 5639 5638 5636 5634 5631 5628 5624 5621 5616 5612 5608 5604 5600 5595 5588 5582 5575 5569 5563 5558 5552 5547 5540 5534 5527 5520 5511 5502 5494 5486 5477 5470 5462 5453 5444 5433 5425 5418
5629 5632 5633 5634 5633 5632 5631 5629 5627 5624 5621 5617 5614 5610 5606 5602 5598 5593 5588 5582 5575 5569 5562 5556 5549 5544 5537 5531 5524 5517 5510 5504 5497 5488 5478 5470 5462 5454 5444 5433 5422 5411 5403
5620 5623 5626 5626 5625 5624 5622 5621 5619 5617 5614 5610 5607 5603 5599 5595 5590 5586 5580 5573 5567 5560 5555 5549 5542 5535 5528 5522 5514 5506 5499 5492 5486 5479 5471 5462 5453 5444 5434 5422 5411 5400 5390
5612 5615 5617 5618 5617 5616 5614 5613 5611 5609 5605 5602 5599 5595 5591 5586 5582 5578 5572 5564 5557 5551 5545 5540 5534 5527 5521 5514 5506 5497 5488 5481 5475 5468 5460 5451 5441 5432 5422 5409 5397 5387 5378
5605 5607 5609 5610 5609 5608 5607 5604 5601 5599 5595 5592 5588 5585 5582 5578 5573 5569 5563 5556 5548 5540 5534 5529 5525 5519 5512 5505 5497 5489 5479 5471 5463 5455 5447 5437 5428 5418 5408 5398 5386 5375 5365
5595 5597 5599 5599 5599 5598 5596 5594 5591 5588 5584 5581 5577 5574 5571 5569 5564 5560 5555 5549 5541 5533 5526 5519 5515 5510 5503 5495 5488 5481 5473 5463 5453 5444 5434 5424 5415 5405 5395 5385 5375 5365 5354
5584 5587 5588 5588 5587 5587 5585 5582 5580 5578 5574 5570 5566 5562 5559 5557 5554 5550 5546 5541 5534 5527 5518 5512 5506 5500 5493 5486 5478 5471 5462 5452 5442 5432 5421 5411 5401 5391 5382 5373 5364 5355 5346
5574 5577 5577 5577 5577 5577 5576 5574 5571 5569 5566 5561 5557 5553 5548 5545 5543 5540 5535 5530 5524 5517 5510 5503 5496 5489 5482 5474 5468 5459 5450 5441 5430 5420 5409 5399 5390 5380 5371 5362 5353 5344 5336
5566 5567 5568 5568 5567 5566 5566 5566 5565 5562 5558 5554 5549 5545 5540 5535 5532 5528 5523 5517 5512 5505 5498 5491 5484 5477 5470 5463 5454 5446 5438 5429 5419 5409 5398 5388 5379 5369 5360 5351 5342 5333 5323
5557 5558 5559 5558 5558 5557 5557 5557 5557 5556 5557 5552 5546 5542 5536 5529 5525 5523 5516 5508 5502 5496 5487 5478 5470 5463 5456 5448 5440 5433 5425 5417 5408 5398 5388 5378 5368 5359 5350 5341 5332 5322 5312
5549 5550 5551 5550 5549 5549 5547 5543 5543 5545 5543 5542 5541 5537 5531 5527 5519 5513 5507 5501 5494 5487 5478 5469 5461 5454 5446 5438 5430 5422 5414 5406 5398 5388 5378 5368 5358 5348 5339 5331 5322 5312 5302
5543 5544 5544 5543 5543 5541 5540 5539 5534 5529 5529 5528 5528 5526 5523 5516 5510 5503 5497 5490 5484 5477 5468 5460 5452 5444 5437 5429 5421 5413 5405 5396 5388 5378 5369 5358 5349 5339 5330 5321 5312 5302 5293
5534 5536 5537 5537 5536 5535 5533 5531 5529 5526 5520 5514 5513 5512 5509 5504 5499 5493 5487 5480 5471 5464 5459 5451 5443 5436 5428 5420 5413 5405 5396 5387 5378 5369 5359 5349 5339 5330 5321 5311 5302 5292 5284
5527 5528 5529 5528 5527 5527 5524 5522 5519 5515 5511 5506 5501 5497 5495 5491 5487 5481 5477 5471 5463 5455 5448 5441 5435 5428 5420 5412 5404 5396 5388 5379 5369 5359 5349 5340 5330 5321 5311 5302 5293 5286 5277
5520 5521 5522 5521 5520 5518 5515 5513 5509 5506 5502 5498 5494 5489 5484 5480 5474 5468 5463 5459 5453 5446 5440 5433 5426 5419 5412 5404 5396 5388 5379 5370 5360 5350 5341 5331 5322 5313 5304 5294 5285 5277 5270
5513 5513 5513 5513 5511 5510 5507 5504 5501 5498 5493 5488 5484 5480 5478 5473 5466 5460 5454 5449 5444 5438 5431 5424 5418 5411 5403 5396 5388 5380 5371 5362 5352 5343 5333 5323 5314 5305 5296 5287 5279 5272 5265
5507 5507 5506 5505 5503 5500 5498 5495 5492 5488 5484 5479 5474 5470 5467 5461 5456 5450 5445 5439 5434 5429 5424 5417 5410 5403 5397 5389 5381 5373 5364 5354 5345 5335 5325 5316 5306 5298 5289 5281 5274 5267 5261
5499 5499 5498 5496 5494 5493 5489 5486 5482 5479 5474 5470 5466 5462 5456 5451 5446 5441 5436 5431 5425 5420 5415 5409 5403 5396 5389 5382 5374 5366 5357 5348 5339 5329 5318 5309 5299 5291 5283 5276 5269 5262 5256
5493 5493 5491 5489 5487 5485 5481 5477 5473 5470 5466 5461 5458 5453 5448 5443 5438 5433 5428 5423 5417 5412 5406 5401 5395 5388 5381 5374 5367 5359 5350 5341 5332 5322 5312 5303 5294 5286 5278 5271 5264 5258 5252
5486 5485 5484 5483 5480 5477 5473 5469 5465 5461 5458 5454 5449 5445 5439 5435 5430 5425 5419 5414 5409 5404 5398 5393 5387 5381 5374 5367 5359 5351 5343 5334 5325 5316 5307 5298 5289 5281 5273 5266 5260 5254 5248
5478 5477 5476 5475 5473 5470 5467 5463 5459 5455 5451 5446 5442 5437 5433 5428 5423 5417 5412 5407 5402 5396 5391 5385 5379 5373 5367 5360 5352 5344 5336 5328 5319 5310 5302 5293 5284 5277 5270 5263 5257 5251 5246